www.pogodaiklimat.ru

Погода и климат >> Архив погоды >> Нигер >> Zinder


ПОГОДА в Zinder

  • Прогноз погоды в Zinder
  • Монитор погоды в Zinder
  • Климат города

АРХИВ ПОГОДЫ в Zinder

Время (UTC), дата Ветер
(напр.,м/с)
 
Видим.   Явления Облачность Т
(С)
Тd
(С)
f
(%)
Тe
(С)
Тes
(С)
Комфортность P
(гПа)
Po
(гПа)
Тmin
(С)
Tmax
(С)
R
(мм)
R24
(мм)
S
(см)
00 14.11 СВ 12 10 км 9/0
[Cs]
+25.5 -1.5 17 +24 +24 комфорт 1008.5 959.0
03 14.11 СВ 12 10 км 9/0
[Cs]
+23.5 +0.1 21 +22 +22 комфорт 1008.4 958.8
06 14.11 СВ 10 10 км 9/0
[Cs]
+23.0 -1.0 20 +22 +22 комфорт 1010.3 960.0 +23.0
09 14.11 СВ 8 10 км 6/0
[Ci sp]
+30.0 +0.6 15 +27 +29 жарко 1011.6 961.6
12 14.11 СВ 6 10 км 6/0
[Ci sp]
+33.7 +1.3 13 +31 +36 жарко 1008.8 959.1
15 14.11 СВ 4 10 км 6/0
[Ci sp]
+33.8 +0.3 12 +30 +33 жарко 1007.6 957.9
18 14.11 СВ 6 10 км 6/0
[Ci sp]
+29.3 +1.0 16 +27 +27 жарко 1009.5 959.2 +34.8
21 14.11 С 8 10 км 6/0
[Ci sp]
+25.0 +2.1 22 +24 +24 комфорт 1011.2 961.1
00 15.11 СВ 4 10 км 6/0
[Ci sp]
+22.8 +1.2 24 +22 +22 комфорт 1010.6 960.6
03 15.11 СВ 4 10 км 6/0
[Ci sp]
+21.0 +1.6 28 +21 +21 комфорт 1010.0 959.9
06 15.11 СВ 6 10 км 9/0
[Ac trans Cs]
+19.8 +2.1 31 +20 +20 1011.8 961.2 +19.6
09 15.11 СВ 12 10 км 9/0
[Cs]
+27.4 +0.5 17 +25 +25 комфорт 1013.1 962.7
12 15.11 СВ 6 10 км 6/0
[Ci sp]
+31.9 +0.8 14 +29 +34 жарко 1010.3 960.2
15 15.11 СВ 8 10 км 6/0
[Ci sp]
+33.0 -1.0 11 +29 +30 жарко 1008.3 958.3
18 15.11 штиль 0 10 км 6/0
[Ci sp]
+27.5 +3.7 22 +26 +26 жарко 1010.2 959.5 +33.6
21 15.11 штиль 0 10 км 9/0
[Cs]
+25.0 +1.3 21 +24 +24 комфорт 1011.1 960.8
00 16.11 СВ 2 10 км 9/0
[Cs]
+22.0 +3.0 29 +22 +22 комфорт 1011.4 961.1
03 16.11 СВ 8 10 км 9/0
[Cs]
+20.8 +2.5 30 +21 +21 комфорт 1010.7 960.9
06 16.11 СВ 8 1200 м пыль 9/0
[Cs]
+21.2 +2.9 30 +21 +21 комфорт 1013.0 962.4 +19.7
09 16.11 СВ 12 500 м пыль {туман} 9/0
[Cs]
+25.5 +4.0 25 +25 +25 комфорт 1014.5 963.8
12 16.11 В 12 800 м пыль {туман} 9/0
[Cs]
+31.0 +3.3 17 +29 +29 жарко 1012.1 961.8
15 16.11 В 10 1400 м пыль {туман} 9/0
[Cs]
+32.4 +2.4 15 +30 +30 жарко 1010.4 960.2
18 16.11 штиль 0 1700 м пыль {туман} 9/0
[Cs]
+27.5 +7.3 28 +27 +27 жарко 1011.3 960.6 +32.5
21 16.11 штиль 0 2000 м пыль 9/0
[Cs]
+22.5 +7.6 38 +23 +23 комфорт 1012.8 1013.0
03 17.11 штиль 0 6000 м пыль 9/0
[Cs]
+19.5 +4.2 36 +20 +20 1012.4 962.0
06 17.11 В 8 3000 м пыль 9/0
[Cs]
+20.5 +3.0 31 +20 +20 1013.0 962.2 +18.4
09 17.11 В 10 2500 м пыль 9/0
[Cs]
+28.0 +0.6 17 +26 +26 жарко 1014.3 963.6
12 17.11 СВ 8 4000 м пыль 9/0
[Cs]
+32.0 +1.9 15 +29 +31 жарко 1011.6 961.4
15 17.11 В 4 4500 м пыль 9/0
[Cs]
+32.9 +3.6 16 +30 +33 жарко 1010.2 959.9
18 17.11 штиль 0 4500 м пыль 9/0
[Cs]
+27.8 +8.1 29 +28 +28 жарко 1011.3 960.7 +33.5
21 17.11 штиль 0 6000 м пыль 9/0
[Cs]
+22.3 +9.0 43 +24 +24 комфорт 1012.6 962.1
03 18.11 штиль 0 6000 м пыль 9/0
[Cs]
+18.0 +7.2 49 +18 +18 1010.3 959.9
06 18.11 штиль 0 8000 м пыль 9/0
[Cs]
+16.3 +6.9 54 +16 +16 1012.7 961.6 +16.3
09 18.11 В 8 10 км 9/0
[Cs]
+29.5 +1.0 16 +27 +28 жарко 1013.7 963.2
12 18.11 В 6 10 км 9/0
[Cs]
+33.6 +6.1 18 +31 +36 жарко 1011.3 961.1
15 18.11 В 8 10 км 9/0
[Cs]
+34.5 +2.1 13 +31 +32 жарко 1009.5 959.2
18 18.11 штиль 0 10 км 9/0
[Cs]
+29.0 +6.2 24 +28 +28 жарко 1010.9 960.0 +35.3
21 18.11 штиль 0 10 км 9/0
[Cs]
+23.5 +7.8 37 +24 +24 комфорт 1011.9 961.5
03 19.11 СВ 2 10 км 9/0
[Cs]
+18.5 +6.9 47 +19 +19 1010.3 960.1
06 19.11 штиль 0 10 км 9/0
[Cs]
+18.4 +6.5 46 +19 +19 1011.7 960.9 +17.6
09 19.11 В 10 10 км 9/0
[Cs]
+29.7 -1.5 13 +27 +27 жарко 1012.9 962.5
12 19.11 ЮВ 8 10 км 9/0
[Cs]
+34.0 +0.8 12 +31 +33 жарко 1010.0 960.0
15 19.11 СВ 4 10 км 9/0
[Cs]
+34.5 0.0 11 +31 +33 жарко 1008.3 958.2
18 19.11 штиль 0 8000 м пыль 9/0
[Cs]
+29.3 +4.6 21 +28 +28 жарко 1009.9 959.2 +35.0
21 19.11 СВ 6 8000 м пыль 9/0
[Cs]
+25.3 +4.3 26 +25 +25 комфорт 1010.8 960.7
03 20.11 штиль 0 10 км 9/0
[Cs]
+19.5 +4.3 37 +20 +20 1010.1 960.0
06 20.11 СВ 6 10 км 9/0
[Ac trans Cs]
+21.0 +2.2 29 +21 +21 комфорт 1011.9 961.4 +18.5
09 20.11 СВ 10 10 км 9/0
[Cs]
+30.7 -1.5 12 +27 +28 жарко 1013.1 962.9
12 20.11 СВ 8 10 км 8/0
[Cs]
+34.8 -3.7 8 +31 +33 жарко 1011.0 961.0
15 20.11 В 6 10 км 9/0
[Cs]
+35.6 -2.1 9 +32 +33 жарко 1009.8 959.8
18 20.11 штиль 0 10 км 6/0
[Ci sp]
+28.8 +2.9 19 +27 +27 жарко 1011.6 961.1 +36.0
21 20.11 СВ 6 10 км 6/0
[Ci sp]
+25.4 +0.7 20 +24 +24 комфорт 1012.3 962.3

 

Местоположение метеостанции Zinder (Нигер): широта 13.78 долгота 8.98 высота над уровнем моря 453 м.

В архиве по умолчанию представлена погода в Zinder за последнюю неделю. Архивные данные за месяц целиком и за предыдущие месяцы, начиная с января 2011 года, Вы можете получить, выбрав интересующий диапазон дат из раскрывающегося списка и нажав кнопку "Ввод!".


*Определитесь, кто Вы:
робот инопланетянин человек

Внимание! Время в таблицах - всемирное. Для получения местного времени необходимо прибавить поправку, которая в Zinder равна 1 ч.

Смотрите также архив погоды в соседних городах и на ближайших метеорологических станциях:

Погода в Magaria (Нигер) (89 км)
Погода в Goure (Нигер) (144 км)
Погода в Cano (Нигерия) (199 км)
Погода в Maradi (Нигер) (208 км)
Погода в Maine-Soroa (Нигер) (330 км)
Погода в Agadez (Нигер) (371 км)
Погода в Birni-Nkonni (Нигер) (403 км)
Погода в Diffa (Нигер) (413 км)
Погода в Tahoua (Нигер) (421 км)
Погода в Nguigmi (Нигер) (450 км)

Пояснения к столбцам:

Ветер - указаны скорость ветра в м/с - средняя за 10 мин, порывы в срок и между сроками (в фигурных скобках) и направление, откуда дует ветер: С - северный, СВ - северо-восточный, В - восточный, ЮВ - юго-восточный, Ю - южный, ЮЗ - юго-западный, З - западный, СЗ - северо-западный.
Видимость - горизонтальная дальность видимости в метрах или километрах. При видимости от 1 до 10 км при отсутствии осадков обычно наблюдается дымка, при ухудшении видимости до 1 км и менее - туман. В сухую погоду видимость может ухудшаться дымом, пылью или мглою.
Явления - указаны атмосферные явления, наблюдавшиеся в срок или в последний час перед сроком; фигурными скобками обозначены явления, наблюдавшиеся между сроками (за 1-3 часа до срока); квадратными скобками обозначены град или гололедные отложения с указанием их диаметра в мм.
Облачность - указаны через наклонную черту общая и нижняя облачность в баллах и высота нижней границы облаков в метрах; квадратными скобками обозначены формы облаков: Ci - перистые, Cs - перисто-слоистые, Cc - перисто-кучевые, Ac - высококучевые, As - высокослоистые, Sc - слоисто-кучевые, Ns - слоисто-дождевые, Cu - кучевые, Cb - кучево-дождевые. Подробнее классификацию облаков см. в Атласе облаков (PDF).
T - Температура воздуха - температура, измеренная на высоте 2 м над землей.
Td - Температура точки росы - температура, при понижении до которой содержащийся в воздухе водяной пар достигнет насыщения.
f - Относительная влажность воздуха - влажноcть воздуха, измеренная на высоте 2 м над землей.
Te - Эффективная температура - температура, которую ощущает одетый по сезону человек в тени. Характеристика душности погоды. При расчете учитывается влияние влажности воздуха и скорости ветра на теплоощущения человека.
Tes - Эффективная температура на солнце - температура, которую ощущает человек, с поправкой на солнечный нагрев. Характеристика знойности погоды. Зависит от высоты солнца над горизонтом, облачности и скорости ветра. Ночью, в пасмурную погоду, а также при ветре 12 м/с и более поправка равна нулю.
P - Атмосферное давление - приведенное к уровню моря атмосферное давление.
Po - Атмосферное давление - измеренное на уровне метеостанции атмосферное давление.
Tmin - Минимальная температура - минимум температуры воздуха на высоте 2 м над землей.
Tmax - Максимальная температура - максимум температуры воздуха на высоте 2 м над землей.
R - Количество осадков - Количество выпавших осадков за период времени, мм. При наведении курсора мыши на число - период времени, за который выпало указанное количество осадков.
R24 - Количество осадков - Количество выпавших осадков за 24 часа, мм.
S - Снежный покров - Высота снежного покрова, см. При наведении курсора мыши на число - состояние снежного покрова и степень покрытия местности в баллах.